Volver al catálogo

STARLINK-31343

ActivoComunicacionesVLEO
NORAD 59093·PAYLOAD·🇺🇸 United States

Lanzado Feb 29, 2024 desde Cape Canaveral Space Force Station

Loading…

Próximos Pases (próximas 24 horas)

TLE

ActualizadoSource: CelesTrak SupGP

Época: Sep 14, 2026, 21:41 UTC

1 59093C 24041V   26257.90395833 -.00021447  00000+0 -77679-3 0  2574
2 59093  43.0021 322.3793 0001578 272.0510 184.4430 15.27589921    19

Sigue STARLINK-31343 en tiempo real con AllMySat

Download on the App Store